STARLINK-11549, 62832

Orbit data source: Space-Track

STARLINK-11549, 62832 is a payload satellite owned by SpaceX/Seattle (US) in LEO that was launched on Mon, 27 Jan 2025 UTC via an FALCON 9 launch vehicle from the Air Force Eastern Test Range (AFETR). Payload-class satellites include a variety of spacecraft equipped with specific instruments for various scientific and technological missions. These include communications satellites like Starlink; space stations such as the ISS; scientific satellites like the Hubble; Earth observation satellites from companies like Planet Labs, Umbra, and HawkEye 360; GPS; miniature CubeSats for education and research; and military/defense satellites.

Loading next visibility...
Identifier
62832, 2025-019D
Orbit
LEO
Country
Flag of USUS
Related business
Manufacturer
SpaceX/Seattle
Mission
Operational Commercial Communications
Bus & Motor
STARLINK V2MD, Unknown motor
Mass
960 kg wet, ~910 kg dry
Launch date (UTC)
2025-01-27 (8 months ago)
Launch vehicle
FALCON 9
Launch site
Air Force Eastern Test Range (AFETR)
Object type
Payload
Rocket body
Debris
Shape & HBR
Box + 2 Pan, 14.5 m
Radar Cross Section
36.964 m², Large (>1 m²)

Expand to show TLE details & history
Last TLE update: 1 day ago

TLE from 1 day ago
0 STARLINK-11549
1 62832U 25019D   25259.76106448  .00212332  00000-0  16165-2 0  9991
2 62832  42.9987 274.6059 0000522 345.8930  14.1923 15.70837555 36528
Epoch: 2025-09-16T18:15Z
TLE epoch observation values (Epoch: 2025-09-16T18:15:55.971Z)
Latitude
Longitude
4.67596°
Altitude
355.932 km
Speed
7.698 km/s
True Right ascension
18h 18m 25s
True Declination
0° 00' 00"
Sunlit
Object was in daylight at epoch
Visualization orbit readout
Latitude
Unknown
Longitude
Unknown
Altitude
Unknown
Speed
Unknown
Apparent Right ascension
Unknown
Apparent Declination
Unknown
Sunlit
N/A
Visualization observer readout
Local Sidereal Time
16:16:04
Azimuth
Unknown
Elevation
Unknown
Doppler factor
Unknown
Orbital elements
Apogee altitude
358.836 km
Perigee altitude
358.132 km
Semi-major axis
6,736.621 km
Eccentricity
0.00005
Inclination
42.9987°
RAAN
274.6059°
Arg. of periapsis
345.893°
True anomaly
14.19377°
Mean anomaly
14.1923°
Eccentric anomaly
14.19303°
Mean motion
3.92536 °/min
Orbital period
91.71 mins
BSTAR
0.0016165
Loading maneuver chart data...
Computing Atmospheric mass density...
Loading historical data...
Loading historical data...
Loading historical data...
Loading historical data...
Loading historical data...
Loading historical data...
Loading historical data...

Documentation

Showing up to 5 results
|